DEBTW EDFG-EDFB

Flight info

Callsign DEBTW
Flight time 0h 13m
Altitude 3500
Route BIBTA
Aircraft DV20/M-SDFGRWY/S

Departure

Time 2026-04-26 14:05
Airport Gelnhausen Airfield (EDFG)

Arrival

Time 2026-04-26 14:18
Airport Reichelsheim Airfield (EDFB)
Time Latitude Longitude Altitude Speed Heading
2026-04-26 13:58 50.19794 9.17126 424 ft 0 kts 258°
2026-04-26 14:03 50.19792 9.17116 420 ft 9 kts 257°
2026-04-26 14:03 50.19747 9.16795 421 ft 49 kts 257°
2026-04-26 14:04 50.19617 9.16201 527 ft 60 kts 255°
2026-04-26 14:04 50.19487 9.15604 663 ft 60 kts 260°
2026-04-26 14:04 50.19388 9.14926 807 ft 65 kts 261°
2026-04-26 14:04 50.19508 9.14201 877 ft 72 kts 303°
2026-04-26 14:05 50.19812 9.13573 1026 ft 74 kts 310°
2026-04-26 14:05 50.20127 9.12939 1215 ft 76 kts 309°
2026-04-26 14:05 50.20464 9.12285 1410 ft 81 kts 311°
2026-04-26 14:05 50.20846 9.11584 1549 ft 90 kts 314°
2026-04-26 14:06 50.21267 9.10869 1614 ft 90 kts 316°
2026-04-26 14:06 50.21666 9.10219 1593 ft 76 kts 318°
2026-04-26 14:06 50.22047 9.09675 1519 ft 75 kts 323°
2026-04-26 14:06 50.22458 9.09162 1453 ft 82 kts 320°
2026-04-26 14:07 50.22800 9.08384 1516 ft 95 kts 303°
2026-04-26 14:07 50.23156 9.07454 1545 ft 104 kts 302°
2026-04-26 14:07 50.23511 9.06518 1520 ft 97 kts 306°
2026-04-26 14:07 50.23858 9.05708 1595 ft 90 kts 305°
2026-04-26 14:08 50.23730 9.04852 1628 ft 92 kts 210°
2026-04-26 14:08 50.23240 9.05163 1610 ft 81 kts 100°
2026-04-26 14:08 50.23532 9.05680 1572 ft 78 kts
2026-04-26 14:08 50.24100 9.05810 1647 ft 88 kts
2026-04-26 14:09 50.24689 9.06047 1729 ft 85 kts 41°
2026-04-26 14:09 50.24668 9.06897 1856 ft 92 kts 130°
2026-04-26 14:09 50.24055 9.07106 1944 ft 99 kts 200°
2026-04-26 14:09 50.23634 9.06291 1957 ft 92 kts 271°
2026-04-26 14:10 50.23841 9.05518 1934 ft 75 kts 312°
2026-04-26 14:10 50.24136 9.04986 2010 ft 58 kts 319°
2026-04-26 14:10 50.24400 9.04609 2045 ft 50 kts 324°
2026-04-26 14:10 50.24714 9.04195 1965 ft 71 kts 322°
2026-04-26 14:11 50.25474 9.02716 1935 ft 96 kts 307°
2026-04-26 14:11 50.25896 9.01834 2047 ft 108 kts 308°
2026-04-26 14:11 50.26367 9.00839 1997 ft 119 kts 308°
2026-04-26 14:12 50.26854 8.99791 1948 ft 118 kts 308°
2026-04-26 14:12 50.27247 8.98911 1880 ft 111 kts 307°
2026-04-26 14:12 50.27696 8.97916 1705 ft 114 kts 308°
2026-04-26 14:12 50.28159 8.96916 1632 ft 115 kts 307°
2026-04-26 14:13 50.29112 8.94910 1649 ft 115 kts 310°
2026-04-26 14:13 50.29616 8.93887 1643 ft 121 kts 309°
2026-04-26 14:13 50.30121 8.92845 1594 ft 115 kts 310°
2026-04-26 14:14 50.30660 8.91932 1581 ft 113 kts 324°
2026-04-26 14:14 50.31313 8.91253 1586 ft 111 kts 330°
2026-04-26 14:14 50.31936 8.90630 1446 ft 101 kts 323°
2026-04-26 14:14 50.32232 8.89676 1154 ft 98 kts 263°
2026-04-26 14:15 50.32261 8.88730 958 ft 77 kts 283°
2026-04-26 14:15 50.32562 8.88091 738 ft 71 kts 321°
2026-04-26 14:15 50.33032 8.87913 526 ft 69 kts 350°
2026-04-26 14:15 50.33490 8.87886 412 ft 60 kts 358°
2026-04-26 14:16 50.33873 8.87873 438 ft 59 kts 359°
2026-04-26 14:16 50.34271 8.87858 616 ft 56 kts 358°
2026-04-26 14:16 50.34636 8.88077 737 ft 70 kts 72°
2026-04-26 14:16 50.34571 8.88911 867 ft 83 kts 97°
2026-04-26 14:17 50.34118 8.89388 960 ft 89 kts 180°
2026-04-26 14:17 50.33494 8.89384 999 ft 90 kts 182°
2026-04-26 14:17 50.32894 8.89257 934 ft 81 kts 213°
2026-04-26 14:17 50.32750 8.88561 829 ft 68 kts 282°
2026-04-26 14:18 50.32951 8.87958 620 ft 65 kts 343°
2026-04-26 14:18 50.33413 8.87891 421 ft 65 kts 359°
2026-04-26 14:18 50.33787 8.87875 409 ft 42 kts 359°
2026-04-26 14:18 50.33960 8.87868 413 ft 9 kts 351°
2026-04-26 14:19 50.33964 8.87794 414 ft 8 kts 195°
2026-04-26 14:19 50.33893 8.87794 411 ft 12 kts 178°
2026-04-26 14:19 50.33812 8.87797 410 ft 11 kts 178°
2026-04-26 14:19 50.33744 8.87801 409 ft 9 kts 180°
2026-04-26 14:20 50.33692 8.87803 409 ft 6 kts 176°
2026-04-26 14:20 50.33631 8.87807 410 ft 18 kts 179°
2026-04-26 14:20 50.33578 8.87776 409 ft 7 kts 256°
2026-04-26 14:20 50.33561 8.87711 411 ft 5 kts 171°
2026-04-26 14:21 50.33555 8.87694 412 ft 3 kts 334°
2026-04-26 14:21 50.33557 8.87693 412 ft 0 kts 333°